SCP
0 0 0 0 -0 0 0 0 -0 0 0 0 -0 -0 0 -0 0 0 0 0 0 0 0 0 0 0 0 0 0 0 0 0 0 0 0 0 0 0 0 0 0 0 0 0
0 0 0 0 -0 -0 -0 0 0 0 0 -0 -0 -0 -0 0 0 0 0 0 0 0 0 0 0 0 0 0 0 0 0 0 0 0 0 0 0 0 0 0 0 0 0 0
0 0 0 0 -0 -0 -0 -0 -0 -0 0 0 -0 -0 0 0 0 0 0 0 0 0 0 0 0 0 0 0 0 0 0 0 0 0 0 -0 -0 0 0 0 0 0 0 0
0 0 0 0 -0 -0 -0 -0 -0 0 0 0 -0 -0 0 0 0 0 -0 0 0 0 0 0 0 0 0 0 0 0 0 0 0 -0 -0 -0 0 0 0 0 0 0 0 0
0 0 0 0 -0 -0 -0 -0 -0 0 0 -0 0 -0 -0 0 0 0 0 -0 0 -0 0 0 0 0 0 0 0 0 -0 0 0 0 0 0 0 0 0 0 0 0 0 0
0 0 0 0 0 -0 -0 -0 -0 0 0 0 0 -0 -0 -0 0 0 0 0 -0 -0 -0 -0 -0 -0 0 -0 -0 -0 -0 0 0 0 0 0 0 0 0 0 0 0 0 0
0 0 0 0 0 0 -0 -0 -0 0 0 0 -0 -0 0 -0 0 0 0 -0 -0 0 -0 -0 0 0 0 -0 -0 0 0 0 0 0 0 0 0 0 0 0 0 0 0 0
0 0 0 0 0 -0 -0 -0 0 0 -0 0 0 0 0 0 -0 -0 -0 -0 -0 0 0 0 0 0 0 -0 0 0 0 0 0 0 0 0 0 0 0 0 0 0 0 0
0 0 0 0 -0 0 0 -0 0 0 0 0 0 0 -0 -0 0 -0 -0 -0 -0 -0 0 0 0 0 0 0 0 0 0 0 0 0 0 0 0 0 0 0 0 0 0 0
0 0 0 0 0 0 0 -0 0 0 0 0 0 -0 -0 -0 0 0 -0 -0 -0 0 0 -0 -0 -0 -0 0 0 0 0 0 0 0 0 0 0 0 0 0 0 0 0 0
0 0 0 0 0 0 -0 -0 0 0 0 0 0 -0 0 0 -0 0 -0 -0 -0 0 0 -0 0 0 0 0 0 0 0 0 0 0 0 0 0 0 0 0 0 0 0 0
0 0 0 0 0 0 0 0 0 0 0 0 0 0 0 -0 -0 0 0 -0 -0 -0 -0 -0 -0 0 0 0 0 0 0 0 0 0 0 0 0 0 0 0 0 0 0 0
0 0 0 0 0 0 0 0 0 0 0 0 0 0 0 -0 -0 -0 -0 -0 -0 -0 -0 0 0 0 0 0 0 0 0 0 0 0 0 0 0 0 0 0 0 0 0 0
0 0 0 0 0 0 0 0 0 0 0 0 0 -0 -0 0 0 0 -0 -0 -0 0 0 0 0 -0 0 0 0 0 0 0 0 0 0 0 0 0 0 0 0 0 0 0
0 0 0 -0 -0 0 0 0 0 0 0 -0 -0 -0 -0 -0 0 -0 0 0 0 0 0 0 0 -0 0 0 0 0 0 0 0 0 0 0 0 0 0 0 0 0 0 0
-0 -0 0 0 0 -0 -0 -0 0 0 0 0 0 0 -0 -0 -0 -0 -0 -0 0 0 0 -0 0 0 0 0 0 0 0 0 0 0 0 0 0 0 0 0 0 0 0 0
0 -0 0 0 0 0 0 0 0 0 0 0 0 0 -0 0 -0 0 0 0 0 0 -0 0 0 0 0 0 0 0 0 0 0 0 0 0 0 0 0 0 0 0 0 0
0 -0 -0 -0 0 0 0 0 0 0 0 -0 -0 -0 -0 -0 0 0 0 0 0 -0 0 0 0 0 0 0 0 0 0 0 0 0 0 0 0 0 0 0 0 0 0 0
-0 -0 0 0 0 -0 -0 -0 0 0 0 0 0 0 0 0 0 0 0 -0 -0 -0 0 0 0 0 0 0 0 0 0 0 0 0 0 0 0 0 0 0 0 0 0 0
-0 -0 -0 0 -0 -0 -0 -0 0 0 0 0 0 0 0 0 0 0 0 0 0 0 0 0 0 0 0 0 0 0 0 0 0 0 0 0 0 0 0 0 0 0 0 0
0 -0 -0 -0 -0 -0 -0 -0 0 0 0 0 0 0 0 0 0 0 0 0 0 0 0 0 0 0 0 0 0 0 0 0 0 0 0 0 0 0 0 0 0 0 0 0
0 0 0 0 0 0 0 0 0 0 0 0 0 0 0 0 0 0 0 0 0 0 0 0 0 0 0 0 0 0 0 0 0 0 0 0 0 0 0 0 0 0 0 0
0 0 0 0 0 0 0 0 0 0 0 0 0 0 0 0 0 0 0 0 0 0 0 0 0 0 0 0 0 0 0 0 0 0 0 0 0 0 0 0 0 0 0 0
0 0 0 0 0 0 0 0 0 0 0 0 0 0 0 0 0 0 0 0 0 0 0 0 0 0 0 0 0 0 0 0 0 0 0 0 0 0 0 0 0 0 0 0
0 0 0 0 0 0 0 0 0 0 0 0 0 0 0 0 0 0 0 0 0 0 0 0 0 0 0 0 0 0 0 0 0 0 0 0 0 0 0 0 0 0 0 0
0 0 0 0 0 0 0 0 0 0 0 0 0 0 0 0 0 0 0 0 0 0 0 0 0 0 0 0 0 0 0 0 0 0 0 0 0 0 0 0 0 0 0 0
0 0 0 0 0 0 0 0 0 0 0 0 0 0 0 0 0 0 0 0 0 0 0 0 0 0 0 0 0 0 0 0 0 0 0 0 0 0 0 0 0 0 0 0
Wind_Speed_500mb
29 37 42 45 35 36 31 32 19 39 42 45 34 26 31 53 26 9 5 17 32 45 47 51 60 63 62 66 79 87 88 84 76 67 59 59 60 52 43 37 33 33 28 24
15 19 14 31 33 35 25 27 25 25 37 13 38 34 47 41 34 7 6 19 29 39 50 52 58 62 61 77 86 89 81 73 60 55 57 59 49 45 42 37 35 31 26 25
13 16 27 9 9 14 13 12 8 13 22 32 37 23 34 42 28 14 11 22 30 40 45 51 56 63 68 74 84 86 76 67 69 65 58 55 49 41 37 34 31 28 25 23
9 16 10 12 7 16 12 21 14 21 24 27 30 30 33 49 42 8 4 19 31 35 48 52 61 70 79 82 79 77 74 70 68 62 53 49 44 39 35 32 28 22 21 23
3 4 16 16 4 2 3 11 6 15 25 35 43 19 14 51 53 24 21 13 25 33 41 52 61 63 71 75 73 66 66 67 58 52 49 46 41 37 34 28 23 18 19 22
5 1 10 12 5 3 5 7 6 11 16 22 39 9 6 46 48 26 21 22 27 39 49 56 55 56 57 70 66 62 62 54 50 47 44 39 35 34 27 21 16 18 20 23
7 9 17 24 15 6 10 10 27 25 31 25 10 10 38 36 30 22 16 17 20 26 35 42 48 51 59 64 59 54 49 47 43 42 39 34 33 28 21 16 15 19 21 23
3 5 16 13 4 8 5 16 22 33 32 31 32 32 29 29 27 19 15 14 15 19 23 26 30 37 46 57 54 47 42 41 43 44 41 36 32 27 20 18 19 19 21 23
18 15 10 4 16 20 36 44 42 40 50 36 37 30 30 31 26 20 13 9 12 14 20 23 24 26 28 37 44 42 46 47 45 40 35 36 32 25 21 19 20 20 23 26
3 11 19 33 53 60 58 58 57 56 38 30 30 25 23 23 21 14 8 5 12 13 16 22 30 34 35 41 47 48 47 46 42 38 38 33 26 24 23 21 23 25 24 22
13 30 44 26 7 16 15 15 19 18 20 23 24 19 19 18 17 13 9 10 13 12 13 17 23 29 37 42 44 45 41 42 41 34 30 27 25 25 25 27 30 28 25 22
16 29 13 13 5 12 17 14 7 11 10 12 19 16 17 19 16 13 9 7 9 11 13 14 18 28 36 39 40 40 39 39 33 30 31 30 31 30 31 31 32 31 27 25
14 19 27 26 19 16 5 12 13 6 8 10 12 10 10 13 12 12 12 11 12 13 13 14 17 22 30 36 37 37 35 34 32 34 34 34 34 34 33 33 35 32 30 30
58 51 32 44 29 25 23 20 10 11 8 5 3 3 5 11 10 9 9 9 9 8 10 13 17 21 28 33 36 38 38 40 35 35 35 37 37 34 37 38 36 33 31 33
51 53 60 42 25 14 12 12 11 8 3 8 2 2 2 7 9 9 8 7 6 5 2 1 4 16 21 24 29 33 36 40 40 39 40 39 36 39 40 40 40 38 37 38
19 36 47 50 47 48 46 37 27 15 11 7 6 4 3 2 4 7 6 6 5 5 1 6 7 14 16 21 26 30 33 37 40 42 42 39 38 41 45 46 46 45 45 41
27 19 25 44 46 37 35 30 30 24 17 9 9 11 11 8 6 8 10 8 7 6 8 7 9 14 17 20 23 25 30 35 39 43 43 42 42 46 47 48 50 50 47 43
31 24 7 8 15 25 30 32 32 32 30 26 22 20 17 14 14 17 16 15 17 17 18 19 21 23 25 27 29 31 33 36 42 46 47 50 50 48 48 51 52 52 49 47
70 39 28 16 17 14 11 19 28 29 29 27 24 23 28 31 30 27 25 22 22 21 21 24 26 27 28 30 31 33 36 40 45 50 53 55 57 56 55 54 53 52 50 50
58 74 68 53 35 21 15 9 15 17 18 19 18 18 19 22 26 28 27 22 21 21 22 24 23 24 26 29 30 32 37 41 45 49 54 58 59 58 56 54 52 51 51 52
29 43 53 56 48 34 27 24 22 28 30 28 25 15 11 9 8 9 7 9 13 13 14 16 17 19 22 25 27 30 34 37 39 40 43 47 51 53 52 51 50 49 51 53
20 24 34 44 49 45 41 36 27 19 15 17 13 8 4 2 7 8 4 2 4 5 6 10 14 19 23 27 31 33 35 38 38 40 41 42 43 44 45 45 47 50 51 51
20 24 27 29 31 33 31 26 24 28 24 21 19 19 19 18 15 9 3 2 7 9 13 16 18 20 21 23 26 29 30 31 34 37 38 40 43 44 46 47 49 50 49 49
24 26 30 31 30 29 31 40 39 37 38 35 30 24 18 13 8 5 5 9 13 16 19 22 25 27 28 30 31 33 35 36 37 39 40 42 43 44 44 45 46 47 49 58
24 32 31 29 32 43 45 47 49 45 37 29 21 14 9 2 5 9 13 17 20 22 24 26 26 27 28 29 30 33 34 36 37 38 38 39 39 39 41 41 45 54 55 55
27 29 31 41 44 48 52 50 44 37 27 19 11 4 5 11 17 22 24 24 23 23 23 24 24 24 24 24 25 26 28 30 31 33 35 36 38 40 42 44 46 48 48 48
36 46 53 54 57 56 51 44 34 25 17 8 2 12 18 25 29 28 24 20 17 17 16 16 16 15 16 17 19 21 24 26 29 30 33 35 38 40 42 43 44 45 46 46
Wind_Direction_500mb
255 270 275 275 280 280 278 266 264 288 301 301 322 336 344 339 330 358 124 152 154 165 171 172 171 164 162 167 167 161 155 155 152 152 156 165 161 165 177 181 184 197 203 211
283 270 287 298 282 276 266 265 265 276 291 308 331 336 340 1 352 316 182 156 156 163 169 169 166 158 161 167 162 152 148 147 152 168 163 161 170 175 177 183 193 201 210 220
272 320 314 13 260 289 282 249 271 302 307 318 321 333 336 353 351 333 164 145 148 160 162 162 161 154 157 160 154 150 148 153 152 150 159 164 173 177 184 193 201 208 217 230
278 340 357 252 292 244 254 280 279 284 305 299 301 310 344 352 1 31 76 136 148 152 158 159 155 153 155 159 156 155 157 157 156 167 172 176 177 179 188 199 208 217 230 240
264 226 286 295 300 259 341 296 281 300 314 318 328 326 355 347 6 21 69 120 152 148 150 159 156 154 157 160 159 157 161 164 168 171 174 178 180 183 193 203 214 228 243 254
90 209 244 242 296 145 141 287 336 291 314 329 334 44 348 340 352 20 55 89 132 144 145 144 149 156 158 167 166 165 172 171 170 172 179 183 186 189 195 207 222 243 258 266
217 257 280 256 262 190 44 277 320 323 330 341 345 329 318 336 359 12 55 82 118 146 160 164 168 172 173 175 178 176 172 172 174 177 183 186 192 194 199 212 241 262 269 276
155 213 273 227 244 193 193 292 302 317 328 332 328 331 347 354 360 13 39 85 116 133 156 178 184 180 182 186 184 178 175 176 177 187 191 191 196 199 207 228 252 270 285 292
189 221 233 224 257 269 295 289 293 289 305 311 324 327 337 350 5 9 27 59 119 136 146 162 176 189 190 188 180 179 184 186 189 193 195 201 204 210 227 251 277 291 287 290
19 263 247 272 293 291 282 277 285 283 285 292 313 324 337 344 358 12 48 91 132 136 147 163 165 175 177 182 182 187 190 191 192 197 205 205 211 229 244 262 278 281 280 286
265 284 282 282 288 11 37 327 278 269 270 284 309 324 336 352 358 19 40 105 132 127 135 153 164 171 178 185 187 190 191 196 199 206 212 218 230 245 254 262 269 270 272 285
220 237 236 263 353 340 359 11 275 281 283 290 317 321 336 353 5 28 56 91 106 124 134 138 156 174 180 184 189 197 198 200 206 216 220 227 239 247 257 267 269 267 271 282
224 237 246 267 285 315 325 29 14 263 310 302 322 318 340 8 23 36 56 90 113 136 157 159 175 182 185 190 195 200 204 208 218 221 226 236 246 254 265 271 265 261 265 279
235 245 264 261 263 272 274 300 315 7 228 225 292 298 332 6 21 45 63 74 97 125 147 169 183 190 194 198 204 210 214 215 223 227 235 243 251 264 271 265 262 262 269 284
244 237 243 251 258 242 257 273 306 307 303 206 202 350 351 16 19 25 46 61 70 73 66 34 198 211 208 211 218 223 228 228 234 236 241 247 255 269 275 271 265 260 265 276
215 227 232 239 247 252 257 262 277 298 320 226 233 288 309 292 8 22 24 22 28 42 147 210 212 228 230 232 234 235 236 237 239 241 244 248 261 278 280 272 265 263 270 282
225 229 224 230 236 242 245 250 253 247 249 258 266 274 277 299 316 300 295 290 286 275 277 279 247 246 246 247 246 246 247 247 248 250 250 253 267 279 282 274 269 268 276 283
235 234 190 201 222 232 236 238 236 233 234 246 263 272 274 273 260 255 254 253 251 248 252 255 254 256 259 259 260 259 259 259 260 259 255 258 267 279 283 279 274 274 280 285
227 224 219 230 239 222 238 235 226 227 235 250 263 271 268 264 263 266 271 276 277 272 260 256 256 256 255 256 258 259 261 261 262 261 262 265 269 277 282 282 277 275 277 283
226 228 230 235 235 231 222 194 180 199 223 237 242 288 280 262 259 262 270 280 274 272 266 262 264 265 264 265 267 268 270 270 268 267 266 269 272 276 280 278 275 274 277 283
224 223 223 221 221 223 219 219 233 262 266 249 239 252 285 294 273 258 251 259 287 284 277 269 268 267 272 277 282 285 288 289 287 285 280 277 274 275 276 277 279 280 282 287
215 210 208 213 217 222 228 241 244 231 215 181 195 204 221 96 110 117 132 271 302 329 308 291 288 289 290 290 289 287 286 286 288 284 282 281 280 278 277 278 281 284 287 290
208 196 193 192 194 197 196 196 189 166 156 149 141 129 120 115 112 118 90 328 327 323 315 312 309 304 300 296 294 295 297 295 291 289 287 286 285 285 285 285 285 286 285 282
208 195 181 177 178 182 179 162 155 147 140 134 127 121 114 100 81 47 357 325 316 309 308 306 305 304 303 303 304 304 302 302 302 300 298 295 293 292 291 289 288 286 285 290
208 196 190 184 175 157 156 151 145 141 139 136 133 129 121 76 341 325 311 305 301 301 300 299 300 301 302 304 307 309 309 308 306 305 302 300 298 295 293 290 291 295 294 295
189 185 178 162 158 154 150 148 145 144 146 149 151 152 329 330 323 314 307 303 301 300 298 300 303 306 310 314 315 316 314 312 310 309 307 305 303 301 300 300 300 301 301 301
180 171 167 164 159 156 154 152 154 156 162 172 330 328 318 314 310 305 299 298 301 301 305 307 313 323 331 335 334 334 329 324 320 317 315 313 311 311 311 311 311 311 310 310
Wind_Speed_850mb
29 37 42 45 35 36 31 32 19 39 42 45 34 26 31 53 26 9 5 17 32 45 47 51 60 63 62 66 79 87 88 84 76 67 59 59 60 52 43 37 33 33 28 24
15 19 14 31 33 35 25 27 25 25 37 13 38 34 47 41 34 7 6 19 29 39 50 52 58 62 61 77 86 89 81 73 60 55 57 59 49 45 42 37 35 31 26 25
13 16 27 9 9 14 13 12 8 13 22 32 37 23 34 42 28 14 11 22 30 40 45 51 56 63 68 74 84 86 76 67 69 65 58 55 49 41 37 34 31 28 25 23
9 16 10 12 7 16 12 21 14 21 24 27 30 30 33 49 42 8 4 19 31 35 48 52 61 70 79 82 79 77 74 70 68 62 53 49 44 39 35 32 28 22 21 23
3 4 16 16 4 2 3 11 6 15 25 35 43 19 14 51 53 24 21 13 25 33 41 52 61 63 71 75 73 66 66 67 58 52 49 46 41 37 34 28 23 18 19 22
5 1 10 12 5 3 5 7 6 11 16 22 39 9 6 46 48 26 21 22 27 39 49 56 55 56 57 70 66 62 62 54 50 47 44 39 35 34 27 21 16 18 20 23
7 9 17 24 15 6 10 10 27 25 31 25 10 10 38 36 30 22 16 17 20 26 35 42 48 51 59 64 59 54 49 47 43 42 39 34 33 28 21 16 15 19 21 23
3 5 16 13 4 8 5 16 22 33 32 31 32 32 29 29 27 19 15 14 15 19 23 26 30 37 46 57 54 47 42 41 43 44 41 36 32 27 20 18 19 19 21 23
18 15 10 4 16 20 36 44 42 40 50 36 37 30 30 31 26 20 13 9 12 14 20 23 24 26 28 37 44 42 46 47 45 40 35 36 32 25 21 19 20 20 23 26
3 11 19 33 53 60 58 58 57 56 38 30 30 25 23 23 21 14 8 5 12 13 16 22 30 34 35 41 47 48 47 46 42 38 38 33 26 24 23 21 23 25 24 22
13 30 44 26 7 16 15 15 19 18 20 23 24 19 19 18 17 13 9 10 13 12 13 17 23 29 37 42 44 45 41 42 41 34 30 27 25 25 25 27 30 28 25 22
16 29 13 13 5 12 17 14 7 11 10 12 19 16 17 19 16 13 9 7 9 11 13 14 18 28 36 39 40 40 39 39 33 30 31 30 31 30 31 31 32 31 27 25
14 19 27 26 19 16 5 12 13 6 8 10 12 10 10 13 12 12 12 11 12 13 13 14 17 22 30 36 37 37 35 34 32 34 34 34 34 34 33 33 35 32 30 30
58 51 32 44 29 25 23 20 10 11 8 5 3 3 5 11 10 9 9 9 9 8 10 13 17 21 28 33 36 38 38 40 35 35 35 37 37 34 37 38 36 33 31 33
51 53 60 42 25 14 12 12 11 8 3 8 2 2 2 7 9 9 8 7 6 5 2 1 4 16 21 24 29 33 36 40 40 39 40 39 36 39 40 40 40 38 37 38
19 36 47 50 47 48 46 37 27 15 11 7 6 4 3 2 4 7 6 6 5 5 1 6 7 14 16 21 26 30 33 37 40 42 42 39 38 41 45 46 46 45 45 41
27 19 25 44 46 37 35 30 30 24 17 9 9 11 11 8 6 8 10 8 7 6 8 7 9 14 17 20 23 25 30 35 39 43 43 42 42 46 47 48 50 50 47 43
31 24 7 8 15 25 30 32 32 32 30 26 22 20 17 14 14 17 16 15 17 17 18 19 21 23 25 27 29 31 33 36 42 46 47 50 50 48 48 51 52 52 49 47
70 39 28 16 17 14 11 19 28 29 29 27 24 23 28 31 30 27 25 22 22 21 21 24 26 27 28 30 31 33 36 40 45 50 53 55 57 56 55 54 53 52 50 50
58 74 68 53 35 21 15 9 15 17 18 19 18 18 19 22 26 28 27 22 21 21 22 24 23 24 26 29 30 32 37 41 45 49 54 58 59 58 56 54 52 51 51 52
29 43 53 56 48 34 27 24 22 28 30 28 25 15 11 9 8 9 7 9 13 13 14 16 17 19 22 25 27 30 34 37 39 40 43 47 51 53 52 51 50 49 51 53
20 24 34 44 49 45 41 36 27 19 15 17 13 8 4 2 7 8 4 2 4 5 6 10 14 19 23 27 31 33 35 38 38 40 41 42 43 44 45 45 47 50 51 51
20 24 27 29 31 33 31 26 24 28 24 21 19 19 19 18 15 9 3 2 7 9 13 16 18 20 21 23 26 29 30 31 34 37 38 40 43 44 46 47 49 50 49 49
24 26 30 31 30 29 31 40 39 37 38 35 30 24 18 13 8 5 5 9 13 16 19 22 25 27 28 30 31 33 35 36 37 39 40 42 43 44 44 45 46 47 49 58
24 32 31 29 32 43 45 47 49 45 37 29 21 14 9 2 5 9 13 17 20 22 24 26 26 27 28 29 30 33 34 36 37 38 38 39 39 39 41 41 45 54 55 55
27 29 31 41 44 48 52 50 44 37 27 19 11 4 5 11 17 22 24 24 23 23 23 24 24 24 24 24 25 26 28 30 31 33 35 36 38 40 42 44 46 48 48 48
36 46 53 54 57 56 51 44 34 25 17 8 2 12 18 25 29 28 24 20 17 17 16 16 16 15 16 17 19 21 24 26 29 30 33 35 38 40 42 43 44 45 46 46
Wind_Direction_850mb
255 270 275 275 280 280 278 266 264 288 301 301 322 336 344 339 330 358 124 152 154 165 171 172 171 164 162 167 167 161 155 155 152 152 156 165 161 165 177 181 184 197 203 211
283 270 287 298 282 276 266 265 265 276 291 308 331 336 340 1 352 316 182 156 156 163 169 169 166 158 161 167 162 152 148 147 152 168 163 161 170 175 177 183 193 201 210 220
272 320 314 13 260 289 282 249 271 302 307 318 321 333 336 353 351 333 164 145 148 160 162 162 161 154 157 160 154 150 148 153 152 150 159 164 173 177 184 193 201 208 217 230
278 340 357 252 292 244 254 280 279 284 305 299 301 310 344 352 1 31 76 136 148 152 158 159 155 153 155 159 156 155 157 157 156 167 172 176 177 179 188 199 208 217 230 240
264 226 286 295 300 259 341 296 281 300 314 318 328 326 355 347 6 21 69 120 152 148 150 159 156 154 157 160 159 157 161 164 168 171 174 178 180 183 193 203 214 228 243 254
90 209 244 242 296 145 141 287 336 291 314 329 334 44 348 340 352 20 55 89 132 144 145 144 149 156 158 167 166 165 172 171 170 172 179 183 186 189 195 207 222 243 258 266
217 257 280 256 262 190 44 277 320 323 330 341 345 329 318 336 359 12 55 82 118 146 160 164 168 172 173 175 178 176 172 172 174 177 183 186 192 194 199 212 241 262 269 276
155 213 273 227 244 193 193 292 302 317 328 332 328 331 347 354 360 13 39 85 116 133 156 178 184 180 182 186 184 178 175 176 177 187 191 191 196 199 207 228 252 270 285 292
189 221 233 224 257 269 295 289 293 289 305 311 324 327 337 350 5 9 27 59 119 136 146 162 176 189 190 188 180 179 184 186 189 193 195 201 204 210 227 251 277 291 287 290
19 263 247 272 293 291 282 277 285 283 285 292 313 324 337 344 358 12 48 91 132 136 147 163 165 175 177 182 182 187 190 191 192 197 205 205 211 229 244 262 278 281 280 286
265 284 282 282 288 11 37 327 278 269 270 284 309 324 336 352 358 19 40 105 132 127 135 153 164 171 178 185 187 190 191 196 199 206 212 218 230 245 254 262 269 270 272 285
220 237 236 263 353 340 359 11 275 281 283 290 317 321 336 353 5 28 56 91 106 124 134 138 156 174 180 184 189 197 198 200 206 216 220 227 239 247 257 267 269 267 271 282
224 237 246 267 285 315 325 29 14 263 310 302 322 318 340 8 23 36 56 90 113 136 157 159 175 182 185 190 195 200 204 208 218 221 226 236 246 254 265 271 265 261 265 279
235 245 264 261 263 272 274 300 315 7 228 225 292 298 332 6 21 45 63 74 97 125 147 169 183 190 194 198 204 210 214 215 223 227 235 243 251 264 271 265 262 262 269 284
244 237 243 251 258 242 257 273 306 307 303 206 202 350 351 16 19 25 46 61 70 73 66 34 198 211 208 211 218 223 228 228 234 236 241 247 255 269 275 271 265 260 265 276
215 227 232 239 247 252 257 262 277 298 320 226 233 288 309 292 8 22 24 22 28 42 147 210 212 228 230 232 234 235 236 237 239 241 244 248 261 278 280 272 265 263 270 282
225 229 224 230 236 242 245 250 253 247 249 258 266 274 277 299 316 300 295 290 286 275 277 279 247 246 246 247 246 246 247 247 248 250 250 253 267 279 282 274 269 268 276 283
235 234 190 201 222 232 236 238 236 233 234 246 263 272 274 273 260 255 254 253 251 248 252 255 254 256 259 259 260 259 259 259 260 259 255 258 267 279 283 279 274 274 280 285
227 224 219 230 239 222 238 235 226 227 235 250 263 271 268 264 263 266 271 276 277 272 260 256 256 256 255 256 258 259 261 261 262 261 262 265 269 277 282 282 277 275 277 283
226 228 230 235 235 231 222 194 180 199 223 237 242 288 280 262 259 262 270 280 274 272 266 262 264 265 264 265 267 268 270 270 268 267 266 269 272 276 280 278 275 274 277 283
224 223 223 221 221 223 219 219 233 262 266 249 239 252 285 294 273 258 251 259 287 284 277 269 268 267 272 277 282 285 288 289 287 285 280 277 274 275 276 277 279 280 282 287
215 210 208 213 217 222 228 241 244 231 215 181 195 204 221 96 110 117 132 271 302 329 308 291 288 289 290 290 289 287 286 286 288 284 282 281 280 278 277 278 281 284 287 290
208 196 193 192 194 197 196 196 189 166 156 149 141 129 120 115 112 118 90 328 327 323 315 312 309 304 300 296 294 295 297 295 291 289 287 286 285 285 285 285 285 286 285 282
208 195 181 177 178 182 179 162 155 147 140 134 127 121 114 100 81 47 357 325 316 309 308 306 305 304 303 303 304 304 302 302 302 300 298 295 293 292 291 289 288 286 285 290
208 196 190 184 175 157 156 151 145 141 139 136 133 129 121 76 341 325 311 305 301 301 300 299 300 301 302 304 307 309 309 308 306 305 302 300 298 295 293 290 291 295 294 295
189 185 178 162 158 154 150 148 145 144 146 149 151 152 329 330 323 314 307 303 301 300 298 300 303 306 310 314 315 316 314 312 310 309 307 305 303 301 300 300 300 301 301 301
180 171 167 164 159 156 154 152 154 156 162 172 330 328 318 314 310 305 299 298 301 301 305 307 313 323 331 335 334 334 329 324 320 317 315 313 311 311 311 311 311 311 310 310